Regional Weather Roundup
Issued by NWS

Home | Current Version | Previous Version | Text Only | Print | Product List | Glossary On
Versions: 1 2 3 4 5 6 7 8 9 10 11 12 13 14 15 16 17 18 19 20 21 22 23 24 25 26 27 28
000
ASUS45 KPSR 261910
RWRAZ

ARIZONA HOURLY REGIONAL WEATHER ROUNDUP
NATIONAL WEATHER SERVICE PHOENIX AZ
1200 PM MST MON SEP 26 2016

NOTE: FAIR INDICATES FEW OR NO CLOUDS BELOW 12,000 FEET WITH NO
SIGNIFICANT WEATHER AND/OR OBSTRUCTIONS TO VISIBILITY.

AZZ001>003-036-262000-
NORTHWEST ARIZONA

CITY           SKY/WX    TMP DP  RH WIND       PRES   REMARKS
BULLHEAD CITY  SUNNY     91  36  14 N18       30.05F
KINGMAN        MOSUNNY   86  34  15 NW5       30.20F
$$

AZZ004>008-015-016-018-262000-
NORTH CENTRAL ARIZONA

CITY           SKY/WX    TMP DP  RH WIND       PRES   REMARKS
GRAND CANYON   SUNNY     68  36  30 NE14G21   30.44F
PRESCOTT       MOSUNNY   76  37  24 E10G20    30.29F
FLAGSTAFF      SUNNY     64  35  34 E15G29    30.43F
PAYSON         MOSUNNY   75  34  22 E8        30.31F
PAGE           SUNNY     72  33  24 NE9       30.35F
$$

AZZ009>014-017-262000-
NORTHEAST ARIZONA

CITY           SKY/WX    TMP DP  RH WIND       PRES   REMARKS
WINSLOW        SUNNY     78  32  18 E10G24    30.32F
SAINT JOHNS    MOSUNNY   75  32  20 E14G25    30.32F
WINDOW ROCK    SUNNY     70  33  25 E7G20     30.44F
SHOW LOW       MOSUNNY   68  30  24 NE10G20   30.36F
$$

AZZ023-262000-
GREATER PHOENIX AREA

CITY           SKY/WX    TMP DP  RH WIND       PRES   REMARKS
PHOENIX        CLOUDY    88  47  24 SE13G23   30.05F
BUCKEYE        CLOUDY    88  48  25 E13G21    30.05F
GLENDALE       PTSUNNY   90  46  22 NE8       30.05F
LUKE AFB       CLOUDY    90  47  23 E8        30.03F
DEER VALLEY    PTSUNNY   88  44  21 SE10      30.06F
SCOTTSDALE     PTSUNNY   89  44  20 SE8       30.08F
MESA-FALCON    PTSUNNY  N/A N/A N/A E9        30.05F
MESA-GATEWAY   CLOUDY    84  46  26 SE10      30.09F
CHANDLER       PTSUNNY   86  48  26 E17       30.07F
$$

AZZ027-028-262000-
SOUTHWEST MARICOPA COUNTY AND PINAL COUNTY

CITY           SKY/WX    TMP DP  RH WIND       PRES   REMARKS
CASA GRANDE    CLOUDY    81  48  32 E18G33    30.10S
GILA BEND      CLOUDY    89  45  21 E23G29    30.00F
$$

AZZ503-504-507>509-262000-
SOUTHEAST ARIZONA

CITY           SKY/WX    TMP DP  RH WIND       PRES   REMARKS
TUCSON         LGT RAIN  70  52  52 SE22G30   30.15F
DAVIS-MONTHAN  LGT RAIN  68  51  55 SE26G32   30.14F
RYAN FIELD     SUNNY     72  52  49 SE20G28   30.14S
NOGALES        CLOUDY    66  53  63 NE10      30.18F
SIERRA VISTA   CLOUDY    56  53  88 SE16G23   30.29F
DOUGLAS        LGT RAIN  58  50  75 E8G18     30.27F
SAFFORD        CLOUDY    76  47  35 SE17G25   30.20F
$$

AZZ020-021-025-026-031-262000-
SOUTHWEST ARIZONA

CITY           SKY/WX    TMP DP  RH WIND       PRES   REMARKS
YUMA           PTSUNNY   96  49  20 E13G21    29.94F
$$

CAZ031-033-041-043-047-048-061-262000-
SOUTHERN CALIFORNIA

CITY           SKY/WX    TMP DP  RH WIND       PRES   REMARKS
DOWNTOWN L.A.  SUNNY    100  37  11 CALM      29.91F
L.A. AIRPORT   MOSUNNY  100  25   7 W5        29.91F
SAN DIEGO      MOSUNNY   94  39  14 E16G23    29.91F
BURBANK        SUNNY     98  31   9 CALM      29.95F
ONTARIO        MOSUNNY   99  28   8 NE10G16   29.96F
RIVERSIDE      SUNNY     99  31   9 VRB3      29.96F
PALM SPRINGS   MOSUNNY   95  33  11 CALM      29.99F
EL CENTRO NAS  PTSUNNY   98  36  11 E10       29.95F
IMPERIAL       SUNNY     98  42  14 E7        29.93F
BLYTHE         SUNNY     94  45  18 E10       29.99F
NEEDLES        SUNNY     95  36  12 NE12      30.06F
$$

NVZ020-UTZ003-262000-
SOUTHERN NEVADA-UTAH

CITY           SKY/WX    TMP DP  RH WIND       PRES   REMARKS
LAS VEGAS      SUNNY     86  28  12 NE12G20   30.17F
SALT LAKE CITY MOSUNNY   68  46  45 NW6       30.38F
$$

NMZ009-TXZ055-262000-
NEW MEXICO-WEST TEXAS

CITY           SKY/WX    TMP DP  RH WIND       PRES   REMARKS
ALBUQUERQUE    PTSUNNY   68  34  28 VRB3      30.40F
EL PASO        CLOUDY    63  44  50 E10       30.32F
$$


........................KEY........................
SKY/WX - SKY CONDITION/WEATHER
TMP    - TEMPERATURE IN FAHRENHEIT
DP     - DEW POINT IN FAHRENHEIT
RH     - RELATIVE HUMIDITY IN PERCENT
WIND   - DIRECTION AND SPEED IN MILES PER HOUR (MPH)
VRB    - VARIABLE WIND DIRECTION
PRES   - MEAN SEA LEVEL PRESSURE IN INCHES OF MERCURY
         F - FALLING PRESSURE   R - RISING PRESSURE
         S - STEADY PRESSURE
VSB    - VISIBILITY IN MILES
HX     - HEAT INDEX IN FAHRENHEIT
WCI    - WIND CHILL INDEX IN FAHRENHEIT
TC     - TEMPERATURE IN CELSIUS WHICH IS ALSO KNOWN AS
         TEMPERATURE IN CENTIGRADE
AFB    - AIR FORCE BASE
         LUKE AFB IS LUKE AIR FORCE BASE
         DAVIS-MONTHAN IS DAVIS-MONTHAN AIR FORCE BASE
NAS    - NAVAL AIR STATION
         EL CENTRO NAS IS EL CENTRO NAVAL AIR STATION
N/A    - NOT AVAILABLE





USA.gov is the U.S. government's official web portal to all federal, state and local government web resources and services.